Flag for U.S.A. Weather past 2 weeks in Inglewood, California, U.S.A.

Now
64 °F

Sunny.


Feels Like: 64 °F
Forecast: 56 / 73 °F
Wind: 3 mph from Northwest

Location: Hawthorne Municipal Airport


UV Index: 7 (High)

Visibility: 10 mi


Pressure: 29.91 "Hg

Humidity: 52%

Dew point: 46 °F

Location of InglewoodLocation

Historic Weather in Inglewood

°F

Inglewood temperature yesterday

Maximum temperature yesterday: 68 °F (at 1:53 PM)
Minimum temperature yesterday: 59 °F (at 12:03 AM)
Average temperature yesterday: 62 °F

Past Weeks' High & Low Weather Summary

 TemperatureHumidityPressure
High82 °F (Apr 9, 12:53 PM)97% (Apr 10, 3:53 AM)30.06 "Hg (Apr 10, 3:53 AM)
Low52 °F (Apr 10, 3:53 AM)16% (Apr 9, 11:53 AM)29.80 "Hg (Apr 16, 5:53 PM)
Average62 °F66%29.95 "Hg
* Reported Apr 8 7:53 PM — Apr 23 7:53 PM, Inglewood, Weather by CustomWeather, © 2014

Note: Actual official high and low records may vary slightly from our data, if they occured in-between our weather recording intervals... More about our weather records

Advertising

Historic Weather Conditions — Data for Previous 24 hours

 ConditionsComfort  
Time TempWeatherWind HumidityBarometerVisibility
7:53 PM
Apr 23
64 °FSunny.3 mph52%29.91 "Hg10 mi
6:53 PM65 °FSunny.7 mph47%29.91 "Hg10 mi
5:53 PM67 °FSunny.10 mph44%29.92 "Hg10 mi
4:53 PM69 °FSunny.13 mph32%29.91 "Hg10 mi
3:53 PM69 °FSunny.10 mph30%29.92 "Hg10 mi
2:53 PM70 °FSunny.14 mph32%29.93 "Hg10 mi
1:53 PM68 °FSunny.14 mph42%29.95 "Hg10 mi
12:53 PM68 °FSunny.12 mph45%29.96 "Hg10 mi
11:53 AM69 °FSunny.7 mph39%29.96 "Hg10 mi
10:53 AM66 °FSunny.No wind40%29.97 "Hg10 mi
9:53 AM63 °FSunny.5 mph54%29.97 "Hg10 mi
8:53 AM61 °FPassing clouds.3 mph67%29.97 "Hg10 mi
7:53 AM60 °FSunny.No wind67%29.96 "Hg10 mi
6:53 AM58 °FPassing clouds.No wind72%29.94 "Hg10 mi
5:53 AM57 °FClear.No wind74%29.93 "Hg10 mi
4:53 AM57 °FClear.No wind74%29.92 "Hg10 mi
3:53 AM57 °FClear.No wind72%29.93 "Hg10 mi
2:53 AM57 °FClear.No wind69%29.93 "Hg10 mi
1:53 AM59 °FClear.No wind64%29.93 "Hg10 mi
12:53 AM59 °FClear.3 mph64%29.93 "Hg10 mi
11:53 PM
Apr 22
60 °FClear.3 mph62%29.92 "Hg10 mi
10:53 PM60 °FClear.7 mph62%29.93 "Hg10 mi
9:53 PM60 °FClear.6 mph60%29.93 "Hg10 mi
Weather by CustomWeather, © 2014

See weather overview